COSMOS 1275 DEB, 12748

Orbit data source: Space-Track

COSMOS 1275 DEB, 12748 is space debris in LEO originally from a launch on Thu, 04 Jun 1981 UTC launched from the Plesetsk Missile And Space Complex (PKMTR). Debris objects in space refer to the collection of defunct objects orbiting the Earth. Examples of debris include non-operational satellites, rocket bodies, and fragments generated from explosions, collisions, or faulty payload assembly.

Loading next visibility...
Identifier
12748, 1981-053CR
Orbit
LEO
Country
Flag of CISCIS
Related business
Manufacturer
Unknown
Mission
Spacecraft
Bus & Motor
Unknown
Mass
Unknown
Launch date (UTC)
1981-06-04 (45 years ago)
Launch vehicle
Unknown
Launch site
Plesetsk Missile And Space Complex (PKMTR)
Object type
Payload
Rocket body
Debris
Shape & HBR
Unknown shape, 0.2 m
Radar Cross Section
Small (<0.1 m²)

Expand to show TLE details & history
Last TLE update: 7 hours ago

TLE from 7 hours ago
0 COSMOS 1275 DEB
1 12748U 81053CR  26119.83877471  .00000343  00000-0  34068-3 0  9997
2 12748  82.9886  50.4738 0045674  88.1420 327.6421 13.74936468239731
Epoch: 2026-04-29T20:07Z
TLE epoch observation values (Epoch: 2026-04-29T20:07:50.134Z)
Latitude
54.98154°
Longitude
-99.22324°
Altitude
962.641 km
Speed
7.39 km/s
True Right ascension
04h 02m 07s
True Declination
54° 49' 27"
Sunlit
Object was in daylight at epoch
Visualization orbit readout
Latitude
Unknown
Longitude
Unknown
Altitude
Unknown
Speed
Unknown
Apparent Right ascension
Unknown
Apparent Declination
Unknown
Sunlit
N/A
Visualization observer readout
Local Sidereal Time
10:29:19
Azimuth
Unknown
Elevation
Unknown
Doppler factor
Unknown
Orbital elements
Apogee altitude
1,012.652 km
Perigee altitude
945.445 km
Semi-major axis
7,357.186 km
Eccentricity
0.00457
Inclination
82.9886°
RAAN
50.4738°
Arg. of periapsis
88.142°
True anomaly
327.36062°
Mean anomaly
327.6421°
Eccentric anomaly
327.5015°
Mean motion
3.43934 °/min
Orbital period
104.67 mins
BSTAR
0.00034068
Loading maneuver chart data...
Computing Atmospheric mass density...
Loading historical data...
Loading historical data...
Loading historical data...
Loading historical data...
Loading historical data...
Loading historical data...
Loading historical data...

Documentation

Showing up to 5 results
|